Regional Weather Roundup
Issued by NWS

Home | Current Version | Previous Version | Graphics & Text | Print | Product List | Glossary Off
Versions: 1 2 3 4 5 6 7 8 9 10 11 12 13 14 15 16 17 18 19 20 21 22 23 24 25 26 27 28 29 30 31 32 33 34 35 36 37 38 39 40 41 42 43 44 45 46 47 48 49 50

000
ASUS43 KMPX 031701
RWRMN
WEATHER ROUNDUP FOR MINNESOTA
NATIONAL WEATHER SERVICE TWIN CITIES/CHANHASSEN MN
1200 PM CDT MON AUG 03 2015


NOTE: "FAIR" INDICATES FEW OR NO CLOUDS BELOW 12,000 FEET WITH NO
SIGNIFICANT WEATHER AND/OR OBSTRUCTIONS TO VISIBILITY. N/A MEANS
CURRENT SKY AND/OR WEATHER CONDITIONS ARE NOT AVAILABLE.

MNZ060>063-068>070-031800-
   Twin Cities Metro

CITY           SKY/WX    TMP DP  RH WIND       PRES   REMARKS
TWIN CITIES    SUNNY     76  50  40 NW15      29.92R
ST PAUL        SUNNY     75  47  36 NW17G25   29.91S
CRYSTAL        SUNNY     76  47  35 NW13G23   29.91S
BLAINE         SUNNY     75  50  41 NW15      29.91S
LAKEVILLE      SUNNY     73  52  46 NW9       29.93S
EDEN PRAIRIE   SUNNY     76  50  40 NW12      29.92R
SOUTH ST PAUL  SUNNY     75  44  33 NW10G21   29.91S
LAKE ELMO      FAIR      72  52  49 NW14G21   29.92S
$$
MNZ001>005-007-008-013>017-022>024-027-028-031800-
   Northwest Minnesota

CITY           SKY/WX    TMP DP  RH WIND       PRES   REMARKS
BEMIDJI        PTSUNNY   68  49  50 NW20G30   29.90S
HALLOCK        SUNNY     70  48  46 N17       29.93R
ROSEAU         MOSUNNY   66  55  68 NW14      29.89S
WARROAD        CLOUDY    63  54  72 W13G18    29.89S
THIEF RVR FALL MOSUNNY   68  50  52 NW18      29.93R
CROOKSTON      SUNNY     72  54  53 N13G21    29.94S
FOSSTON        MOSUNNY   70  48  46 W13G22    29.93S
DETROIT LAKES  SUNNY     72  46  40 NW10G18   29.96R
MOORHEAD       SUNNY     73  52  46 NW13      29.96S
PARK RAPIDS    SUNNY     73  46  38 NW18      29.92S
MAHNOMEN       FAIR      68  51  54 NW13      29.94S
$$
MNZ006-009>011-018-025>026-031800-
   North Central Minnesota

CITY           SKY/WX    TMP DP  RH WIND       PRES   REMARKS
BAUDETTE       CLOUDY    62  52  69 NW15      29.87R
FLAG ISLAND    RAIN      61  54  77 W21G29    29.85S
INTL FALLS     CLOUDY    65  54  67 NW15G22   29.84R
WASKISH        CLOUDY    66  54  63 W13       29.88S
BIG FORK       MOSUNNY   64  50  59 NW7G18    29.87S
LONGVILLE      PTSUNNY   70  52  52 NW10G17   29.90F
GRAND RAPIDS   CLOUDY    64  48  55 NW20      29.88S
CRANE LAKE     CLOUDY    63  52  67 W5        29.84R
ORR            CLOUDY    63  52  67 W12       29.82S
COOK           CLOUDY    63  54  72 NW10G20   29.86R
WALKER         PTSUNNY   69  50  52 NW14G20   29.90F
$$
MNZ012-019>021-037-031800-
   Northeast Minnesota

CITY           SKY/WX    TMP DP  RH WIND       PRES   REMARKS
DULUTH         PTSUNNY   65  51  60 NW16G23   29.86R
ELY            CLOUDY    63  50  63 W10G20    29.81S
HIBBING        CLOUDY    63  52  67 NW9       29.86R
EVELETH        CLOUDY    63  50  63 W13G21    29.86R
DULUTH HARBOR  CLOUDY    70  54  56 W10       29.85R
TWO HARBORS    CLOUDY    70  55  60 W10       29.82R
SILVER BAY     MOSUNNY   72  52  49 W9G21     29.79R
GRAND MARAIS     N/A     66  50  56 NW10G21   29.73R
G MARAIS ARPRT SUNNY     64  48  55 NW12G18   29.78S
$$
MNZ029>031-032-039>041-046>048-054>057-064-031800-
   West Central Minnesota

CITY           SKY/WX    TMP DP  RH WIND       PRES   REMARKS
FERGUS FALLS   SUNNY     72  54  53 NW13G18   29.95S
WHEATON        SUNNY     73  54  49 NW13G18   29.98F
MORRIS         SUNNY     73  55  53 NW13      29.96S
ALEXANDRIA     SUNNY     73  50  44 NW16      29.97S
ELBOW LAKE     FAIR      72  54  54 NW10      29.96S
WADENA         SUNNY     72  46  40 NW13G18   29.94S
GLENWOOD       SUNNY     73  52  46 W13G18    29.96F
APPLETON       SUNNY     75  46  35 NW13      29.96S
BENSON         SUNNY     75  50  41 NW13G18   29.96S
ORTONVILLE     SUNNY     75  48  38 NW10      29.98R
MADISON        SUNNY     75  48  38 NW9       29.98S
WILLMAR        FAIR      75  54  46 NW10G16   29.97S
$$
MNZ033>034-036-042>043-049>051-058-059-031800-
   Central Minnesota

CITY           SKY/WX    TMP DP  RH WIND       PRES   REMARKS
ST CLOUD       SUNNY     74  49  41 NW8       29.93R
SAUK CENTRE    FAIR      72  49  44 W12       29.95S
PAYNESVILLE    SUNNY     71  47  43 W8        29.95F
AITKIN         MOSUNNY   72  52  49 NW9G22    29.89S
PINE RIVER     MOSUNNY   70  50  49 NW8G17    29.94S
BRAINERD       MOSUNNY   72  46  39 NW18G28   29.91F
STAPLES        SUNNY     72  45  37 NW15      29.93S
LONG PRAIRIE   FAIR      72  46  40 W12       29.95S
LITTLE FALLS     N/A     72  43  35 W14       29.93S
LITCHFIELD     SUNNY     73  52  46 NW8       29.95S
BUFFALO        SUNNY     74  47  38 W9G16     29.94S
MAPLE LAKE     SUNNY     73  52  46 NW13      29.95R
$$
MNZ037-044-045-052-053-031800-
   East Central Minnesota

CITY           SKY/WX    TMP DP  RH WIND       PRES   REMARKS
PRINCETON      SUNNY     75  48  38 W17       29.92S
MORA           SUNNY     70  50  49 NW15G22   29.92S
CAMBRIDGE      SUNNY     75  54  46 NW16G23   29.89S
RUSH CITY      SUNNY     71  51  49 NW9G23    29.90S
MOOSE LAKE     PTSUNNY   68  52  56 NW6G20    29.86S
HINCKLEY       FAIR      70  52  52 NW13      29.89S
CLOQUET        CLOUDY    66  48  52 NW10G17   29.87R
MCGREGOR       PTSUNNY   70  50  49 NW15G22   29.89S
$$
MNZ071>073-080-081-089-090-097-098-031800-
   Southwest Minnesota

CITY           SKY/WX    TMP DP  RH WIND       PRES   REMARKS
MONTEVIDEO     SUNNY     79  55  44 N7        29.99R
GRANITE FALLS  SUNNY     74  53  48 NW12      29.99S
CANBY          SUNNY     75  52  45 NW7       29.99F
MARSHALL       SUNNY     75  48  38 NW12G17   30.00S
REDWOOD FALLS  SUNNY     77  50  38 W14       29.96S
OLIVIA         SUNNY     72  50  46 NW12G17   29.96S
PIPESTONE      SUNNY     73  55  53 NW8       30.01S
WINDOM         SUNNY     75  55  50 W9        29.99S
WORTHINGTON    SUNNY     73  54  49 W9        30.00F
JACKSON        SUNNY     75  54  46 W12       30.00S
TRACY          SUNNY     73  55  53 NW6       29.99S
SLAYTON        SUNNY     75  53  45 CALM      30.01S
$$
MNZ065>067-074>077-082>085-091>093-031800-
   South Central Minnesota

CITY           SKY/WX    TMP DP  RH WIND       PRES   REMARKS
MANKATO        SUNNY     73  50  43 NW13      29.96R
NEW ULM        SUNNY     75  48  38 W14       29.96S
FAIRMONT       SUNNY     75  50  41 NW10G16   29.97F
GLENCOE        SUNNY     74  57  55 NW8       29.94S
FARIBAULT      SUNNY     73  54  49 NW10      29.94S
OWATONNA       SUNNY     75  52  43 W12       29.95S
WASECA         SUNNY     72  54  53 W10G16    29.97S
ALBERT LEA     SUNNY     73  54  49 NW10G17   29.96S
$$
MNZ078>079-086>088-094>096-031800-
   Southeast Minnesota

CITY           SKY/WX    TMP DP  RH WIND       PRES   REMARKS
ROCHESTER      MOSUNNY   73  56  54 NW13      29.95R
RED WING       SUNNY     77  45  31 NW10      29.90S
STANTON        SUNNY     74  52  45 NW10      29.92S
DODGE CENTER   SUNNY     72  52  49 NW8       29.95R
WINONA         MOSUNNY   75  52  43 N9G16     29.90S
AUSTIN         SUNNY     73  52  46 W10       29.95F
PRESTON        SUNNY     72  50  45 W12G20    29.95S
$$
ABBREVIATIONS USED IN REMARKS
   TC - TEMPERATURES IN CELSIUS
  WCI - WIND CHILL INDEX
   HX - HEAT INDEX
  VSB - VISIBILITY
$$



USA.gov is the U.S. government's official web portal to all federal, state and local government web resources and services.